Simultaneous Nadir Overpasses (SNOs) Predictions

Prediction of SNOs between GOES-17 and TERRA Satellite Orbit:

Table of predicted SNOs for the next 14.0 days since TLE Epoch: 7/6/2024
Index Date Time (GOES-17) GOES-17 Lat,Lon TERRA Lat,Lon Distance(km) Time Diff (sec)
1 07/08/2024 04:28:51 0.01,-104.69 0.77,-101.22 394.82 80
2 07/08/2024 16:51:25 -0.01,-104.71 0.26,-106.06 153.00 80
3 07/10/2024 16:31:16 -0.02,-104.72 -0.64,-101.85 326.35 80
4 07/11/2024 04:53:57 0.02,-104.70 -0.42,-106.71 229.15 80
5 07/13/2024 04:33:48 0.03,-104.70 0.52,-102.50 250.79 80
6 07/13/2024 16:56:22 -0.02,-104.72 0.50,-107.34 296.83 80
7 07/15/2024 16:36:11 -0.03,-104.73 -0.33,-103.11 183.24 80
8 07/16/2024 04:58:53 0.02,-104.71 -0.64,-107.99 372.13 80
9 07/18/2024 04:38:42 0.02,-104.71 0.23,-103.76 107.59 80
10 07/18/2024 17:01:15 -0.02,-104.72 0.79,-108.60 440.20 80
